Погода в Аспе

Россия / Пермский край     56°51′29″N   56°20′08″E
темп.,
°C
ветер,
м/с
пор.,
м/с
влажн.,
%
обл.,
%
осадки,
мм/ч
давл.,
гПа
погр.,
м
29 июля, чт
чт2923:00+9с11846 0.1 101311
02:00+7сз008937 0.0 101310
05:00+7зюз118776 0.0 101310
08:00+12юз35705 0.0 1012224
11:00+19зюз574962 0.0 10111285
14:00+22з58379 0.0 10102524
17:00+23з573447 0.0 10092466
20:00+19зюз2460100 0.0 100891
30 июля, пт
пт3023:00+16ююз2465100 0.0 100771
02:00+13юз366987 0.0 1007111
05:00+14ююз4977100 0.0 1006331
08:00+14ю41196100 0.1 1004469
11:00+16ююз5888100 0.2 1003664
14:00+17зюз479099 0.2 1003593
17:00+20з5872100 0.3 10041154
20:00+20з4108066 0.3 1004565
31 июля, сб
сб3123:00+16зюз39931 0.8 1005152
02:00+15юз229369 0.0 100633
05:00+15юз2293100 0.0 100617
08:00+18ююз3890100 0.0 1007258
11:00+17юз1196100 1.7 100735
14:00+17ююз2798100 3.0 1007421
17:00+21юз388797 5.0 1005343
20:00+20юз4989100 1.5 1004383
1 августа, вс
вс123:00+18юз3996100 1.6 1005209
02:00+16зюз25962 0.3 1006102
05:00+17юз2595100 0.3 1006103
08:00+19зюз378992 0.2 1007263
11:00+23зюз57645 1.1 1007853
14:00+26з684145 0.1 10082649
17:00+25з684587 0.1 10082461
20:00+22зюз4106096 0.0 1009378
2 августа, пн
пн223:00+17з227882 0.0 101030
02:00+15з228278 0.0 101118
05:00+17з1173100 0.0 101112
08:00+19ююз2469100 0.0 1011197
11:00+22зюз51064100 0.0 1012700
14:00+23юз595898 0.1 1011883
17:00+27з6950100 0.1 10101518
20:00+23зюз510684 0.1 1010401